Location: Catstown
(52.4386°N, 7.2633°W)
Time: 05:26:02
(UTC+00:00)

Cosmos 2278 Rocket - Pass Details

Date: 18 September 2020
Orbit: 841 x 845 km, 71.0° (Epoch: 20 October)

Event Time Altitude Azimuth Distance (km) Brightness Sun altitude
Exits shadow 21:22:35 13° 55° (NE) 2,244 4.2 -24.2°
Drops below altitude 10° 21:23:20 10° 50° (NE) 2,470 4.5 -24.3°
Sets 21:26:09 0° 38° (NE) 3,410 5.4 -24.7°
